N0JVW-13 Weather Reports


time (UTC)temp
C
wind
direction
speed
KPH
gust
KPH
rain 1hr
cm
rain 24hr
cm
rain mn
cm
humidity
%
barometer
mb
20260503021532 11 312 0.0 0.0 0.00 0.00 0.00 51 1018.5
20260503021004 12 312 0.0 0.0 0.00 0.00 0.00 51 1018.5
20260503020544 12 312 0.0 0.0 0.00 0.00 0.00 49 1018.4
20260503020020 12 312 0.0 0.0 0.00 0.00 0.00 49 1018.3
20260503015601 12 312 0.0 0.0 0.00 0.00 0.00 49 1018.3
20260503015041 12 312 0.0 0.0 0.00 0.00 0.00 47 1018.2
20260503014514 12 312 0.0 0.0 0.00 0.00 0.00 47 1018.2
20260503014057 12 312 0.0 0.0 0.00 0.00 0.00 48 1018.2
20260503013531 13 312 0.0 0.0 0.00 0.00 0.00 44 1018.2
20260503013015 13 312 0.0 0.0 0.00 0.00 0.00 44 1018.2
20260503012548 13 312 0.0 0.0 0.00 0.00 0.00 43 1018.2
20260503012026 13 312 0.0 0.0 0.00 0.00 0.00 43 1018.1
20260503011633 13 312 0.0 0.0 0.00 0.00 0.00 43 1018.1
20260503011040 14 312 0.0 0.0 0.00 0.00 0.00 42 1018.1
20260503010514 14 312 0.0 0.0 0.00 0.00 0.00 41 1018.2
20260503010056 14 312 0.0 0.0 0.00 0.00 0.00 40 1018.1
20260503005530 15 312 0.0 0.0 0.00 0.00 0.00 40 1018.1
20260503005007 15 312 0.0 0.0 0.00 0.00 0.00 40 1018.2
20260503004547 15 312 0.0 0.0 0.00 0.00 0.00 40 1018.2
20260503004023 15 312 0.0 0.0 0.00 0.00 0.00 40 1018.2
20260503003604 15 312 0.0 0.0 0.00 0.00 0.00 39 1018.3
20260503003041 15 312 0.0 0.0 0.00 0.00 0.00 39 1018.2
20260503002514 15 312 0.0 0.0 0.00 0.00 0.00 37 1018.2
20260503002055 15 312 0.0 0.0 0.00 0.00 0.00 38 1018.3
20260503001532 16 312 0.0 0.0 0.00 0.00 0.00 36 1018.1
20260503001008 16 312 0.0 0.0 0.00 0.00 0.00 36 1018.2
20260503000549 16 312 0.0 0.0 0.00 0.00 0.00 36 1018.2
20260503000024 16 312 0.0 0.0 0.00 0.00 0.00 35 1018.2
20260502235501 16 312 0.0 1.6 0.00 0.00 0.00 35 1018.2
20260502235041 16 312 0.0 1.6 0.00 0.00 0.00 34 1018.3
20260502234520 16 46 0.0 1.6 0.00 0.00 0.00 34 1018.3
20260502234059 16 321 0.0 1.6 0.00 0.00 0.00 33 1018.3
20260502233533 16 321 0.0 0.0 0.00 0.00 0.00 35 1018.3
20260502233010 16 321 0.0 3.2 0.00 0.00 0.00 35 1018.4
20260502232552 16 321 0.0 3.2 0.00 0.00 0.00 34 1018.4
20260502232030 16 186 0.0 0.0 0.00 0.00 0.00 34 1018.4
20260502231607 16 186 0.0 0.0 0.00 0.00 0.00 35 1018.4
20260502231055 16 186 0.0 0.0 0.00 0.00 0.00 34 1018.5
20260502230528 16 205 0.0 1.6 0.00 0.00 0.00 34 1018.5
20260502230007 16 205 0.0 1.6 0.00 0.00 0.00 33 1018.6
20260502225542 16 205 0.0 1.6 0.00 0.00 0.00 33 1018.6
20260502225019 16 261 0.0 3.2 0.00 0.00 0.00 32 1018.6
20260502224600 16 4 0.0 3.2 0.00 0.00 0.00 32 1018.6
20260502224036 16 150 0.0 3.2 0.00 0.00 0.00 34 1018.7
20260502223512 16 27 0.0 4.8 0.00 0.00 0.00 31 1018.7
20260502223059 16 333 0.0 4.8 0.00 0.00 0.00 33 1018.7
20260502222528 16 3 0.0 8.0 0.00 0.00 0.00 32 1018.7
20260502222003 16 3 1.6 8.0 0.00 0.00 0.00 31 1018.7
20260502221543 16 25 0.0 4.8 0.00 0.00 0.00 33 1018.7
20260502221020 16 323 0.0 4.8 0.00 0.00 0.00 32 1018.7
20260502220601 16 326 0.0 4.8 0.00 0.00 0.00 34 1018.7
20260502220037 16 29 0.0 4.8 0.00 0.00 0.00 32 1018.8
20260502215517 16 264 0.0 3.2 0.00 0.00 0.00 35 1018.9
20260502215054 16 357 0.0 9.7 0.00 0.00 0.00 33 1019.0
20260502214531 16 357 4.8 9.7 0.00 0.00 0.00 31 1019.0
20260502214007 16 323 0.0 3.2 0.00 0.00 0.00 33 1019.0
20260502213548 16 319 0.0 3.2 0.00 0.00 0.00 33 1019.1
20260502213036 16 256 0.0 3.2 0.00 0.00 0.00 32 1019.0
20260502212605 16 257 0.0 3.2 0.00 0.00 0.00 35 1019.1
20260502212041 16 309 0.0 6.4 0.00 0.00 0.00 35 1019.2
20260502211521 16 354 3.2 6.4 0.00 0.00 0.00 33 1019.1
20260502211059 16 14 0.0 6.4 0.00 0.00 0.00 35 1019.2
20260502210535 16 359 0.0 6.4 0.00 0.00 0.00 35 1019.3
20260502210013 16 320 0.0 6.4 0.00 0.00 0.00 36 1019.5
20260502205552 16 338 0.0 4.8 0.00 0.00 0.00 35 1019.6
20260502205027 16 339 0.0 9.7 0.00 0.00 0.00 36 1019.5
20260502204504 16 355 1.6 9.7 0.00 0.00 0.00 35 1019.5
20260502204044 16 15 0.0 4.8 0.00 0.00 0.00 34 1019.6
20260502203521 16 316 0.0 3.2 0.00 0.00 0.00 36 1019.7
20260502203120 16 316 0.0 3.2 0.00 0.00 0.00 33 1019.7
20260502202538 16 159 0.0 1.6 0.00 0.00 0.00 36 1019.7
20260502202014 16 149 0.0 3.2 0.00 0.00 0.00 36 1019.7
20260502201609 16 149 0.0 3.2 0.00 0.00 0.00 35 1019.7
20260502201033 16 314 0.0 4.8 0.00 0.00 0.00 35 1019.9
20260502200507 16 323 0.0 4.8 0.00 0.00 0.00 33 1019.9
20260502200051 16 259 0.0 4.8 0.00 0.00 0.00 38 1020.0
20260502195522 16 330 0.0 4.8 0.00 0.00 0.00 35 1020.0
20260502195103 16 307 0.0 3.2 0.00 0.00 0.00 37 1020.1
20260502194540 15 167 0.0 4.8 0.00 0.00 0.00 36 1020.0
20260502194016 15 20 1.6 4.8 0.00 0.00 0.00 34 1020.1
20260502193558 15 332 0.0 3.2 0.00 0.00 0.00 37 1020.0
20260502193039 15 5 0.0 4.8 0.00 0.00 0.00 35 1020.1
20260502192511 15 314 0.0 4.8 0.00 0.00 0.00 36 1020.3
20260502192049 15 323 0.0 4.8 0.00 0.00 0.00 35 1020.3
20260502191528 15 308 0.0 4.8 0.00 0.00 0.00 36 1020.3
20260502191002 15 308 1.6 6.4 0.00 0.00 0.00 34 1020.4
20260502190542 15 302 0.0 6.4 0.00 0.00 0.00 34 1020.4
20260502190019 15 257 0.0 3.2 0.00 0.00 0.00 36 1020.5
20260502185559 15 8 0.0 3.2 0.00 0.00 0.00 34 1020.6
20260502185035 15 339 0.0 3.2 0.00 0.00 0.00 36 1020.7
20260502184511 15 41 0.0 3.2 0.00 0.00 0.00 35 1020.7
20260502184053 15 315 0.0 4.8 0.00 0.00 0.00 33 1020.8
20260502183528 15 314 0.0 9.7 0.00 0.00 0.00 36 1020.8
20260502183006 15 30 0.0 9.7 0.00 0.00 0.00 33 1020.8
20260502182546 15 344 1.6 6.4 0.00 0.00 0.00 35 1020.8
20260502182021 15 321 0.0 8.0 0.00 0.00 0.00 36 1020.9
20260502181602 15 347 3.2 9.7 0.00 0.00 0.00 38 1021.0
20260502181036 15 27 4.8 14.5 0.00 0.00 0.00 37 1021.1
20260502180512 15 27 6.4 14.5 0.00 0.00 0.00 37 1021.2
20260502164054 13 283 0.0 9.7 0.00 0.00 0.00 44 1021.5
20260502163529 13 13 0.0 9.7 0.00 0.00 0.00 45 1021.5
20260502163004 13 4 1.6 6.4 0.00 0.00 0.00 48 1021.5
20260502162546 13 349 0.0 6.4 0.00 0.00 0.00 47 1021.5
20260502162020 13 349 0.0 6.4 0.00 0.00 0.00 46 1021.5
20260502161603 13 4 1.6 6.4 0.00 0.00 0.00 46 1021.6
20260502161036 13 330 0.0 8.0 0.00 0.00 0.00 48 1021.4
20260502160513 13 349 1.6 8.0 0.00 0.00 0.00 48 1021.5
20260502152054 12 303 0.0 6.4 0.00 0.00 0.00 54 1021.6
20260502151529 12 354 0.0 4.8 0.00 0.00 0.00 55 1021.6
20260502151005 12 337 0.0 8.0 0.00 0.00 0.00 56 1021.6
20260502150546 12 38 3.2 8.0 0.00 0.00 0.00 55 1021.6
20260502140103 9 350 0.0 9.7 0.00 0.00 0.00 69 1021.5
20260502130555 7 22 0.0 6.4 0.00 0.00 0.00 75 1021.1
20260502123540 6 200 0.0 0.0 0.00 0.00 0.00 77 1020.9
20260502123017 5 200 0.0 0.0 0.00 0.00 0.00 77 1020.8
20260502122559 5 200 0.0 0.0 0.00 0.00 0.00 78 1020.8
20260502122034 5 200 0.0 0.0 0.00 0.00 0.00 78 1020.7
20260502121513 5 201 0.0 0.0 0.00 0.00 0.00 79 1020.7
20260502121051 5 200 0.0 0.0 0.00 0.00 0.00 79 1020.6
20260502120528 5 200 0.0 0.0 0.00 0.00 0.00 79 1020.5
20260502115547 5 201 0.0 0.0 0.00 0.00 0.00 79 1020.3
20260502115021 5 200 0.0 0.0 0.00 0.00 0.00 78 1020.3
20260502114603 5 200 0.0 0.0 0.00 0.00 0.00 78 1020.2
20260502114038 5 200 0.0 0.0 0.00 0.00 0.00 79 1020.1
20260502113514 5 201 0.0 0.0 0.00 0.00 0.00 78 1020.1
20260502113106 5 200 0.0 0.0 0.00 0.00 0.00 78 1020.1
20260502112529 5 200 0.0 0.0 0.00 0.00 0.00 78 1020.0
20260502112006 5 200 0.0 0.0 0.00 0.00 0.00 78 1019.9
20260502111547 5 200 0.0 0.0 0.00 0.00 0.00 77 1020.0
20260502111022 5 200 0.0 0.0 0.00 0.00 0.00 77 1019.9
20260502110604 5 200 0.0 0.0 0.00 0.00 0.00 77 1019.9
20260502110043 5 200 0.0 0.0 0.00 0.00 0.00 77 1019.9
20260502105516 5 200 0.0 0.0 0.00 0.00 0.00 77 1019.9
20260502105058 5 200 0.0 0.0 0.00 0.00 0.00 77 1019.8
20260502104536 5 200 0.0 0.0 0.00 0.00 0.00 77 1019.8
20260502104009 5 200 0.0 0.0 0.00 0.00 0.00 77 1019.7
20260502103549 5 200 0.0 0.0 0.00 0.00 0.00 77 1019.7
20260502103025 5 200 0.0 0.0 0.00 0.00 0.00 76 1019.7
20260502102501 5 200 0.0 0.0 0.00 0.00 0.00 76 1019.6
20260502102042 5 200 0.0 0.0 0.00 0.00 0.00 76 1019.6
20260502101518 5 200 0.0 0.0 0.00 0.00 0.00 76 1019.5
20260502101058 5 200 0.0 0.0 0.00 0.00 0.00 76 1019.5
20260502100533 5 200 0.0 0.0 0.00 0.00 0.00 75 1019.4
20260502091028 6 200 0.0 0.0 0.00 0.00 0.00 71 1019.2
20260502090502 6 200 0.0 0.0 0.00 0.00 0.00 70 1019.2
20260502071030 8 201 0.0 0.0 0.00 0.00 0.00 60 1018.8
20260502070503 8 200 0.0 0.0 0.00 0.00 0.00 60 1018.9
20260502065522 8 200 0.0 0.0 0.00 0.00 0.00 59 1018.9
20260502065103 8 200 0.0 0.0 0.00 0.00 0.00 58 1018.9
20260502064545 8 200 0.0 0.0 0.00 0.00 0.00 58 1018.9
20260502064014 8 200 0.0 0.0 0.00 0.00 0.00 58 1018.9
20260502063555 8 200 0.0 0.0 0.00 0.00 0.00 57 1018.9
20260502063034 8 200 0.0 0.0 0.00 0.00 0.00 57 1018.9
20260502062508 9 200 0.0 0.0 0.00 0.00 0.00 57 1018.9
20260502062048 9 200 0.0 0.0 0.00 0.00 0.00 57 1018.9
20260502061524 9 200 0.0 0.0 0.00 0.00 0.00 57 1018.9
20260502061107 9 200 0.0 0.0 0.00 0.00 0.00 56 1018.9
20260502060538 9 200 0.0 0.0 0.00 0.00 0.00 57 1018.9
20260502060027 9 200 0.0 0.0 0.00 0.00 0.00 56 1018.9
20260502055556 9 200 0.0 0.0 0.00 0.00 0.00 56 1019.0
20260502055034 9 200 0.0 0.0 0.00 0.00 0.00 55 1019.0
20260502054509 10 200 0.0 0.0 0.00 0.00 0.00 55 1018.9
20260502054051 10 200 0.0 0.0 0.00 0.00 0.00 54 1018.9
20260502053525 10 200 0.0 0.0 0.00 0.00 0.00 55 1018.9
20260502053002 10 201 0.0 0.0 0.00 0.00 0.00 55 1018.9
20260502052543 10 200 0.0 0.0 0.00 0.00 0.00 56 1018.8
20260502052021 10 200 0.0 1.6 0.00 0.00 0.00 56 1018.9
20260502051603 10 200 0.0 1.6 0.00 0.00 0.00 55 1018.9
20260502051037 10 22 0.0 1.6 0.00 0.00 0.00 54 1018.8
20260502050510 10 22 0.0 1.6 0.00 0.00 0.00 55 1018.7
20260502050051 10 22 0.0 1.6 0.00 0.00 0.00 56 1018.7
20260502045528 10 8 0.0 1.6 0.00 0.00 0.00 56 1018.7
20260502045007 10 8 0.0 1.6 0.00 0.00 0.00 57 1018.8
20260502044546 10 335 0.0 1.6 0.00 0.00 0.00 57 1018.8
20260502044022 10 335 0.0 1.6 0.00 0.00 0.00 58 1018.8
20260502043604 10 335 0.0 0.0 0.00 0.00 0.00 60 1018.8
20260502043050 10 335 0.0 0.0 0.00 0.00 0.00 60 1018.7
20260502042514 9 335 0.0 0.0 0.00 0.00 0.00 61 1018.7
20260502042055 9 335 0.0 0.0 0.00 0.00 0.00 65 1018.7
20260502041553 9 335 0.0 0.0 0.00 0.00 0.00 66 1018.6
20260502041005 9 335 0.0 0.0 0.00 0.00 0.00 65 1018.6
20260502040550 10 335 0.0 0.0 0.00 0.00 0.00 65 1018.6
20260502040042 10 335 0.0 0.0 0.00 0.00 0.00 65 1018.6
20260502035603 10 335 0.0 0.0 0.00 0.00 0.00 64 1018.6
20260502035040 10 335 0.0 0.0 0.00 0.00 0.00 63 1018.5
20260502034514 10 335 0.0 0.0 0.00 0.00 0.00 63 1018.5
20260502034055 10 335 0.0 0.0 0.00 0.00 0.00 62 1018.5
20260502033530 10 335 0.0 0.0 0.00 0.00 0.00 61 1018.5
20260502033006 10 335 0.0 0.0 0.00 0.00 0.00 59 1018.5
20260502032545 10 335 0.0 0.0 0.00 0.00 0.00 58 1018.4
20260502032022 11 335 0.0 0.0 0.00 0.00 0.00 58 1018.4
20260502031603 11 335 0.0 0.0 0.00 0.00 0.00 58 1018.4
20260502031038 11 335 0.0 0.0 0.00 0.00 0.00 56 1018.2
20260502030515 11 335 0.0 0.0 0.00 0.00 0.00 56 1018.2
20260502030117 11 335 0.0 0.0 0.00 0.00 0.00 54 1018.2
20260502025533 11 335 0.0 0.0 0.00 0.00 0.00 52 1018.1
20260502025014 12 335 0.0 0.0 0.00 0.00 0.00 51 1018.1
20260502024603 12 335 0.0 0.0 0.00 0.00 0.00 51 1018.0
20260502024026 12 335 0.0 0.0 0.00 0.00 0.00 51 1017.9
20260502023502 12 335 0.0 0.0 0.00 0.00 0.00 50 1017.8
20260502023100 12 335 0.0 0.0 0.00 0.00 0.00 49 1017.8
20260502022521 12 335 0.0 0.0 0.00 0.00 0.00 50 1017.7
20260502022059 13 335 0.0 0.0 0.00 0.00 0.00 50 1017.6